No particular awareness of the weather is required.    There are no Weather-warnings


Meteo18 Weather Cam more information Meteo18 Weather Cam


Thunder radar more information blitzortung!


Rain radar more information rain snow radar


Visit our other weather sites:

Template documentation
and downloads

And another site



Weather Underground History page Text

Daily Summary for December 13, 2017 Units:  Both    English   Metric
« Previous Day
Next Day »
Daily Weekly Monthly Yearly Custom
  High: Low: Average:
Temperature: TemperatureC °F /  -17.8 °C 0.8 °F /  -17.3 °C 5.4 °F /  -14.8 °C
Dew Point: DewpointC °F /  -17.8 °C -0.5 °F /  -18.1 °C 4.2 °F /  -15.4 °C
Humidity: Humidity % 86 % 92 %
Wind Speed: WindSpeedKMH mph /  0 km/h - 14.5 mph /  23.3 km/h
Wind Gust: WindSpeedGustKMH mph /  0 km/h - -
Wind:- - SW
Pressure: PressurehPa in /  0 hPa 1001.2 in /  33900.6 hPa -
Precipitation: 8.9 in /  226.06 mm    
Historical Graphs
 
 
Tabular Data for December 13, 2017
Time Temperature Dew Point Pressure Wind Wind Speed Wind Gust Humidity Rainfall Rate (Hourly)
TemperatureC °F /  -17.8 °C DewpointC °F /  -17.8 °C PressurehPa in /  0 hPa Calm     Humidity % HourlyPrecipMM in /  0 mm
00:02 2.6 °F /  -16.3 °C 0.8 °F /  -17.3 °C 1018.8 in /  34496.6 hPa SSW 3.2 mph /  5.1 km/h 3.2 mph /  5.1 km/h 88 % 0.0 in /  0 mm
00:12 2.6 °F /  -16.3 °C 1.0 °F /  -17.2 °C 1018.8 in /  34496.6 hPa Calm   3.2 mph /  5.1 km/h 89 % 0.0 in /  0 mm
00:27 2.3 °F /  -16.5 °C 0.7 °F /  -17.4 °C 1018.8 in /  34496.6 hPa SSW 1.6 mph /  2.6 km/h 3.2 mph /  5.1 km/h 89 % 0.0 in /  0 mm
00:32 2.3 °F /  -16.5 °C 0.8 °F /  -17.3 °C 1019.2 in /  34510.1 hPa SW 3.2 mph /  5.1 km/h 3.2 mph /  5.1 km/h 90 % 0.0 in /  0 mm
00:47 2.4 °F /  -16.4 °C 0.8 °F /  -17.3 °C 1018.8 in /  34496.6 hPa SE 3.2 mph /  5.1 km/h 4.8 mph /  7.7 km/h 89 % 0.0 in /  0 mm
00:52 2.4 °F /  -16.4 °C 0.8 °F /  -17.3 °C 1018.8 in /  34496.6 hPa Calm   4.8 mph /  7.7 km/h 89 % 0.0 in /  0 mm
00:57 2.4 °F /  -16.4 °C 0.8 °F /  -17.3 °C 1018.8 in /  34496.6 hPa Calm   4.8 mph /  7.7 km/h 89 % 0.0 in /  0 mm
01:02 2.3 °F /  -16.5 °C 0.7 °F /  -17.4 °C 1018.8 in /  34496.6 hPa South 3.2 mph /  5.1 km/h 4.8 mph /  7.7 km/h 89 % 0.0 in /  0 mm
01:12 2.2 °F /  -16.6 °C 0.6 °F /  -17.4 °C 1018.5 in /  34486.4 hPa South 1.6 mph /  2.6 km/h 6.4 mph /  10.3 km/h 89 % 0.0 in /  0 mm
01:17 2.1 °F /  -16.6 °C 0.5 °F /  -17.5 °C 1018.5 in /  34486.4 hPa SSW 1.6 mph /  2.6 km/h 6.4 mph /  10.3 km/h 89 % 0.0 in /  0 mm
01:22 1.8 °F /  -16.8 °C 0.2 °F /  -17.7 °C 1018.5 in /  34486.4 hPa SSW 1.6 mph /  2.6 km/h 6.4 mph /  10.3 km/h 89 % 0.0 in /  0 mm
01:27 1.7 °F /  -16.8 °C 0.1 °F /  -17.7 °C 1018.5 in /  34486.4 hPa SSW 4.8 mph /  7.7 km/h 4.8 mph /  7.7 km/h 89 % 0.0 in /  0 mm
01:47 1.7 °F /  -16.8 °C 0.1 °F /  -17.7 °C 1018.2 in /  34476.3 hPa SW 6.4 mph /  10.3 km/h 9.7 mph /  15.6 km/h 89 % 0.0 in /  0 mm
01:52 1.8 °F /  -16.8 °C 0.2 °F /  -17.7 °C 1018.2 in /  34476.3 hPa SW 8.0 mph /  12.9 km/h 11.3 mph /  18.2 km/h 89 % 0.0 in /  0 mm
01:57 1.8 °F /  -16.8 °C 0.2 °F /  -17.7 °C 1018.2 in /  34476.3 hPa South 6.4 mph /  10.3 km/h 14.5 mph /  23.3 km/h 89 % 0.0 in /  0 mm
02:02 1.8 °F /  -16.8 °C 0.2 °F /  -17.7 °C 1018.5 in /  34486.4 hPa SSW 6.4 mph /  10.3 km/h 14.5 mph /  23.3 km/h 89 % 0.0 in /  0 mm
02:07 1.8 °F /  -16.8 °C 0.2 °F /  -17.7 °C 1018.5 in /  34486.4 hPa SSW 9.7 mph /  15.6 km/h 14.5 mph /  23.3 km/h 89 % 0.0 in /  0 mm
02:12 1.8 °F /  -16.8 °C 0.2 °F /  -17.7 °C 1018.5 in /  34486.4 hPa SSW 4.8 mph /  7.7 km/h 12.9 mph /  20.8 km/h 89 % 0.0 in /  0 mm
02:22 1.7 °F /  -16.8 °C 0.1 °F /  -17.7 °C 1018.5 in /  34486.4 hPa South 1.6 mph /  2.6 km/h 11.3 mph /  18.2 km/h 89 % 0.0 in /  0 mm
02:37 1.7 °F /  -16.8 °C 0.1 °F /  -17.7 °C 1018.5 in /  34486.4 hPa SSW 1.6 mph /  2.6 km/h 8.0 mph /  12.9 km/h 89 % 0.0 in /  0 mm
02:42 1.6 °F /  -16.9 °C 0.0 °F /  -17.8 °C 1018.5 in /  34486.4 hPa SSW 4.8 mph /  7.7 km/h 8.0 mph /  12.9 km/h 89 % 0.0 in /  0 mm
02:52 1.5 °F /  -16.9 °C -0.1 °F /  -17.8 °C 1018.2 in /  34476.3 hPa South 1.6 mph /  2.6 km/h 6.4 mph /  10.3 km/h 89 % 0.0 in /  0 mm
02:57 1.4 °F /  -17 °C -0.2 °F /  -17.9 °C 1018.2 in /  34476.3 hPa SSW 1.6 mph /  2.6 km/h 6.4 mph /  10.3 km/h 89 % 0.0 in /  0 mm
03:02 1.3 °F /  -17.1 °C -0.3 °F /  -17.9 °C 1018.2 in /  34476.3 hPa Calm   6.4 mph /  10.3 km/h 89 % 0.0 in /  0 mm
03:12 1.2 °F /  -17.1 °C -0.1 °F /  -17.8 °C 1018.2 in /  34476.3 hPa SSW 6.4 mph /  10.3 km/h 11.3 mph /  18.2 km/h 91 % 0.0 in /  0 mm
03:17 1.2 °F /  -17.1 °C -0.1 °F /  -17.8 °C 1018.2 in /  34476.3 hPa SW 6.4 mph /  10.3 km/h 11.3 mph /  18.2 km/h 91 % 0.0 in /  0 mm
03:32 1.3 °F /  -17.1 °C 0.0 °F /  -17.8 °C 1017.8 in /  34462.7 hPa SW 6.4 mph /  10.3 km/h 12.9 mph /  20.8 km/h 91 % 0.0 in /  0 mm
03:37 1.3 °F /  -17.1 °C -0.2 °F /  -17.9 °C 1017.8 in /  34462.7 hPa SW 3.2 mph /  5.1 km/h 12.9 mph /  20.8 km/h 90 % 0.0 in /  0 mm
03:42 1.3 °F /  -17.1 °C -0.2 °F /  -17.9 °C 1017.8 in /  34462.7 hPa SSW 4.8 mph /  7.7 km/h 11.3 mph /  18.2 km/h 90 % 0.0 in /  0 mm
03:52 1.1 °F /  -17.2 °C -0.2 °F /  -17.9 °C 1017.8 in /  34462.7 hPa SSW 9.7 mph /  15.6 km/h 11.3 mph /  18.2 km/h 91 % 0.0 in /  0 mm
04:02 0.8 °F /  -17.3 °C -0.5 °F /  -18.1 °C 1017.8 in /  34462.7 hPa SSW 3.2 mph /  5.1 km/h 9.7 mph /  15.6 km/h 91 % 0.0 in /  0 mm
04:17 0.9 °F /  -17.3 °C -0.3 °F /  -17.9 °C 1017.8 in /  34462.7 hPa SSW 4.8 mph /  7.7 km/h 9.7 mph /  15.6 km/h 92 % 0.0 in /  0 mm
04:22 0.8 °F /  -17.3 °C -0.4 °F /  -18 °C 1017.5 in /  34452.6 hPa SSW 6.4 mph /  10.3 km/h 9.7 mph /  15.6 km/h 92 % 0.0 in /  0 mm
04:27 0.8 °F /  -17.3 °C -0.4 °F /  -18 °C 1017.5 in /  34452.6 hPa SSW 6.4 mph /  10.3 km/h 11.3 mph /  18.2 km/h 92 % 0.0 in /  0 mm
04:32 0.9 °F /  -17.3 °C -0.3 °F /  -17.9 °C 1017.2 in /  34442.4 hPa SSW 8.0 mph /  12.9 km/h 11.3 mph /  18.2 km/h 92 % 0.0 in /  0 mm
04:42 1.0 °F /  -17.2 °C -0.2 °F /  -17.9 °C 1016.8 in /  34428.8 hPa South 4.8 mph /  7.7 km/h 12.9 mph /  20.8 km/h 92 % 0.0 in /  0 mm
04:47 1.1 °F /  -17.2 °C -0.1 °F /  -17.8 °C 1016.8 in /  34428.8 hPa South 4.8 mph /  7.7 km/h 12.9 mph /  20.8 km/h 92 % 0.0 in /  0 mm
04:52 1.1 °F /  -17.2 °C -0.1 °F /  -17.8 °C 1016.8 in /  34428.8 hPa SSW 6.4 mph /  10.3 km/h 12.9 mph /  20.8 km/h 92 % 0.0 in /  0 mm
05:02 1.1 °F /  -17.2 °C -0.1 °F /  -17.8 °C 1016.8 in /  34428.8 hPa South 6.4 mph /  10.3 km/h 8.0 mph /  12.9 km/h 92 % 0.0 in /  0 mm
05:17 1.2 °F /  -17.1 °C 0.0 °F /  -17.8 °C 1016.5 in /  34418.7 hPa SSW 11.3 mph /  18.2 km/h 11.3 mph /  18.2 km/h 92 % 0.0 in /  0 mm
05:27 1.3 °F /  -17.1 °C 0.1 °F /  -17.7 °C 1016.5 in /  34418.7 hPa SW 11.3 mph /  18.2 km/h 14.5 mph /  23.3 km/h 92 % 0.0 in /  0 mm
05:32 1.3 °F /  -17.1 °C 0.1 °F /  -17.7 °C 1016.5 in /  34418.7 hPa SW 11.3 mph /  18.2 km/h 14.5 mph /  23.3 km/h 92 % 0.0 in /  0 mm
05:37 1.4 °F /  -17 °C 0.2 °F /  -17.7 °C 1016.5 in /  34418.7 hPa SSW 8.0 mph /  12.9 km/h 14.5 mph /  23.3 km/h 92 % 0.0 in /  0 mm
05:42 1.4 °F /  -17 °C 0.2 °F /  -17.7 °C 1016.5 in /  34418.7 hPa SSW 6.4 mph /  10.3 km/h 16.1 mph /  25.9 km/h 92 % 0.0 in /  0 mm
05:52 1.5 °F /  -16.9 °C 0.3 °F /  -17.6 °C 1016.5 in /  34418.7 hPa SW 16.1 mph /  25.9 km/h 17.7 mph /  28.5 km/h 92 % 0.0 in /  0 mm
05:57 1.5 °F /  -16.9 °C 0.2 °F /  -17.7 °C 1016.5 in /  34418.7 hPa SW 11.3 mph /  18.2 km/h 17.7 mph /  28.5 km/h 91 % 0.0 in /  0 mm
06:02 1.4 °F /  -17 °C 0.1 °F /  -17.7 °C 1016.1 in /  34405.1 hPa SW 12.9 mph /  20.8 km/h 17.7 mph /  28.5 km/h 91 % 0.0 in /  0 mm
06:12 1.4 °F /  -17 °C 0.2 °F /  -17.7 °C 1016.1 in /  34405.1 hPa WSW 9.7 mph /  15.6 km/h 17.7 mph /  28.5 km/h 92 % 0.0 in /  0 mm
06:17 1.3 °F /  -17.1 °C 0.1 °F /  -17.7 °C 1016.1 in /  34405.1 hPa SW 12.9 mph /  20.8 km/h 16.1 mph /  25.9 km/h 92 % 0.0 in /  0 mm
06:32 1.3 °F /  -17.1 °C 0.1 °F /  -17.7 °C 1016.1 in /  34405.1 hPa SW 11.3 mph /  18.2 km/h 12.9 mph /  20.8 km/h 92 % 0.0 in /  0 mm
06:37 1.3 °F /  -17.1 °C 0.1 °F /  -17.7 °C 1016.1 in /  34405.1 hPa SSW 6.4 mph /  10.3 km/h 12.9 mph /  20.8 km/h 92 % 0.0 in /  0 mm
06:42 1.3 °F /  -17.1 °C 0.1 °F /  -17.7 °C 1016.1 in /  34405.1 hPa SSW 6.4 mph /  10.3 km/h 14.5 mph /  23.3 km/h 92 % 0.0 in /  0 mm
06:47 1.3 °F /  -17.1 °C 0.3 °F /  -17.6 °C 1015.8 in /  34395 hPa SSW 6.4 mph /  10.3 km/h 14.5 mph /  23.3 km/h 93 % 0.0 in /  0 mm
06:52 1.3 °F /  -17.1 °C 0.3 °F /  -17.6 °C 1015.8 in /  34395 hPa SSW 4.8 mph /  7.7 km/h 9.7 mph /  15.6 km/h 93 % 0.0 in /  0 mm
07:02 1.4 °F /  -17 °C 0.4 °F /  -17.6 °C 1015.5 in /  34384.8 hPa SW 8.0 mph /  12.9 km/h 9.7 mph /  15.6 km/h 93 % 0.0 in /  0 mm
07:07 1.5 °F /  -16.9 °C 0.5 °F /  -17.5 °C 1015.5 in /  34384.8 hPa SSW 6.4 mph /  10.3 km/h 9.7 mph /  15.6 km/h 93 % 0.0 in /  0 mm
07:22 1.8 °F /  -16.8 °C 0.8 °F /  -17.3 °C 1015.1 in /  34371.3 hPa South 8.0 mph /  12.9 km/h 9.7 mph /  15.6 km/h 93 % 0.0 in /  0 mm
07:32 2.1 °F /  -16.6 °C 1.1 °F /  -17.2 °C 1015.1 in /  34371.3 hPa SSW 9.7 mph /  15.6 km/h 11.3 mph /  18.2 km/h 93 % 0.0 in /  0 mm
07:37 2.2 °F /  -16.6 °C 1.0 °F /  -17.2 °C 1015.1 in /  34371.3 hPa SSW 9.7 mph /  15.6 km/h 11.3 mph /  18.2 km/h 92 % 0.0 in /  0 mm
07:42 2.4 °F /  -16.4 °C 1.2 °F /  -17.1 °C 1014.8 in /  34361.1 hPa SSW 6.4 mph /  10.3 km/h 11.3 mph /  18.2 km/h 92 % 0.0 in /  0 mm
07:57 2.8 °F /  -16.2 °C 1.5 °F /  -16.9 °C 1014.4 in /  34347.6 hPa SSW 6.4 mph /  10.3 km/h 19.3 mph /  31.1 km/h 91 % 0.0 in /  0 mm
08:02 2.8 °F /  -16.2 °C 1.5 °F /  -16.9 °C 1014.4 in /  34347.6 hPa SSW 12.9 mph /  20.8 km/h 19.3 mph /  31.1 km/h 91 % 0.0 in /  0 mm
08:07 2.9 °F /  -16.2 °C 1.4 °F /  -17 °C 1014.4 in /  34347.6 hPa SW 6.4 mph /  10.3 km/h 19.3 mph /  31.1 km/h 90 % 0.0 in /  0 mm
08:27 3.3 °F /  -15.9 °C 1.8 °F /  -16.8 °C 1014.4 in /  34347.6 hPa SSW 9.7 mph /  15.6 km/h 17.7 mph /  28.5 km/h 90 % 0.0 in /  0 mm
08:37 3.4 °F /  -15.9 °C 1.9 °F /  -16.7 °C 1014.4 in /  34347.6 hPa South 14.5 mph /  23.3 km/h 22.5 mph /  36.2 km/h 90 % 0.0 in /  0 mm
08:42 3.5 °F /  -15.8 °C 2.0 °F /  -16.7 °C 1014.1 in /  34337.4 hPa SSW 6.4 mph /  10.3 km/h 22.5 mph /  36.2 km/h 90 % 0.0 in /  0 mm
08:52 3.7 °F /  -15.7 °C 2.1 °F /  -16.6 °C 1013.8 in /  34327.3 hPa SW 19.3 mph /  31.1 km/h 22.5 mph /  36.2 km/h 89 % 0.0 in /  0 mm
08:57 3.7 °F /  -15.7 °C 2.1 °F /  -16.6 °C 1013.8 in /  34327.3 hPa South 11.3 mph /  18.2 km/h 22.5 mph /  36.2 km/h 89 % 0.0 in /  0 mm
09:02 3.8 °F /  -15.7 °C 2.3 °F /  -16.5 °C 1013.8 in /  34327.3 hPa SW 16.1 mph /  25.9 km/h 20.9 mph /  33.6 km/h 90 % 0.0 in /  0 mm
09:07 3.8 °F /  -15.7 °C 2.3 °F /  -16.5 °C 1013.8 in /  34327.3 hPa SSW 9.7 mph /  15.6 km/h 20.9 mph /  33.6 km/h 90 % 0.0 in /  0 mm
09:12 3.8 °F /  -15.7 °C 2.3 °F /  -16.5 °C 1013.4 in /  34313.7 hPa SSW 12.9 mph /  20.8 km/h 20.9 mph /  33.6 km/h 90 % 0.0 in /  0 mm
09:17 3.8 °F /  -15.7 °C 2.5 °F /  -16.4 °C 1013.4 in /  34313.7 hPa SSW 11.3 mph /  18.2 km/h 25.7 mph /  41.4 km/h 91 % 0.0 in /  0 mm
09:22 3.8 °F /  -15.7 °C 2.5 °F /  -16.4 °C 1013.4 in /  34313.7 hPa SSW 12.9 mph /  20.8 km/h 25.7 mph /  41.4 km/h 91 % 0.3 in /  7.62 mm
09:32 3.9 °F /  -15.6 °C 2.6 °F /  -16.3 °C 1013.1 in /  34303.6 hPa SSW 11.3 mph /  18.2 km/h 25.7 mph /  41.4 km/h 91 % 0.3 in /  7.62 mm
09:37 3.9 °F /  -15.6 °C 2.6 °F /  -16.3 °C 1013.1 in /  34303.6 hPa SW 24.1 mph /  38.8 km/h 29.0 mph /  46.7 km/h 91 % 0.5 in /  12.7 mm
09:42 4.0 °F /  -15.6 °C 2.8 °F /  -16.2 °C 1013.1 in /  34303.6 hPa SSW 16.1 mph /  25.9 km/h 29.0 mph /  46.7 km/h 92 % 0.5 in /  12.7 mm
09:47 4.0 °F /  -15.6 °C 2.8 °F /  -16.2 °C 1012.8 in /  34293.4 hPa SSW 17.7 mph /  28.5 km/h 29.0 mph /  46.7 km/h 92 % 0.5 in /  12.7 mm
09:52 4.1 °F /  -15.5 °C 2.9 °F /  -16.2 °C 1012.8 in /  34293.4 hPa SSE 16.1 mph /  25.9 km/h 27.4 mph /  44.1 km/h 92 % 0.8 in /  20.32 mm
10:02 4.1 °F /  -15.5 °C 2.9 °F /  -16.2 °C 1012.8 in /  34293.4 hPa SSW 11.3 mph /  18.2 km/h 27.4 mph /  44.1 km/h 92 % 1.0 in /  25.4 mm
10:12 4.1 °F /  -15.5 °C 2.9 °F /  -16.2 °C 1012.8 in /  34293.4 hPa SSE 12.9 mph /  20.8 km/h 27.4 mph /  44.1 km/h 92 % 1.3 in /  33.02 mm
10:17 4.2 °F /  -15.4 °C 3.2 °F /  -16 °C 1012.8 in /  34293.4 hPa SSW 12.9 mph /  20.8 km/h 25.7 mph /  41.4 km/h 93 % 1.3 in /  33.02 mm
10:22 4.2 °F /  -15.4 °C 3.0 °F /  -16.1 °C 1012.8 in /  34293.4 hPa SW 12.9 mph /  20.8 km/h 20.9 mph /  33.6 km/h 92 % 1.3 in /  33.02 mm
10:27 4.2 °F /  -15.4 °C 3.2 °F /  -16 °C 1012.4 in /  34279.9 hPa South 9.7 mph /  15.6 km/h 24.1 mph /  38.8 km/h 93 % 1.5 in /  38.1 mm
10:37 4.2 °F /  -15.4 °C 3.2 °F /  -16 °C 1012.1 in /  34269.7 hPa South 12.9 mph /  20.8 km/h 24.1 mph /  38.8 km/h 93 % 1.5 in /  38.1 mm
10:47 4.3 °F /  -15.4 °C 3.3 °F /  -15.9 °C 1012.1 in /  34269.7 hPa SW 16.1 mph /  25.9 km/h 24.1 mph /  38.8 km/h 93 % 1.5 in /  38.1 mm
10:52 4.4 °F /  -15.3 °C 3.4 °F /  -15.9 °C 1012.4 in /  34279.9 hPa SSW 12.9 mph /  20.8 km/h 20.9 mph /  33.6 km/h 93 % 1.3 in /  33.02 mm
11:02 4.5 °F /  -15.3 °C 3.5 °F /  -15.8 °C 1012.4 in /  34279.9 hPa SW 14.5 mph /  23.3 km/h 24.1 mph /  38.8 km/h 93 % 1.5 in /  38.1 mm
11:12 4.6 °F /  -15.2 °C 3.7 °F /  -15.7 °C 1012.1 in /  34269.7 hPa SSW 16.1 mph /  25.9 km/h 24.1 mph /  38.8 km/h 94 % 1.3 in /  33.02 mm
11:17 4.6 °F /  -15.2 °C 3.7 °F /  -15.7 °C 1012.1 in /  34269.7 hPa SSW 16.1 mph /  25.9 km/h 24.1 mph /  38.8 km/h 94 % 2.3 in /  58.42 mm
11:22 4.7 °F /  -15.2 °C 3.8 °F /  -15.7 °C 1012.1 in /  34269.7 hPa South 16.1 mph /  25.9 km/h 22.5 mph /  36.2 km/h 94 % 2.3 in /  58.42 mm
11:27 4.7 °F /  -15.2 °C 3.8 °F /  -15.7 °C 1012.1 in /  34269.7 hPa SW 12.9 mph /  20.8 km/h 27.4 mph /  44.1 km/h 94 % 2.3 in /  58.42 mm
11:32 4.7 °F /  -15.2 °C 4.0 °F /  -15.6 °C 1012.1 in /  34269.7 hPa SW 11.3 mph /  18.2 km/h 27.4 mph /  44.1 km/h 95 % 2.3 in /  58.42 mm
11:37 4.8 °F /  -15.1 °C 4.1 °F /  -15.5 °C 1012.1 in /  34269.7 hPa SW 9.7 mph /  15.6 km/h 27.4 mph /  44.1 km/h 95 % 2.3 in /  58.42 mm
11:47 4.9 °F /  -15.1 °C 4.3 °F /  -15.4 °C 1011.7 in /  34256.2 hPa SW 14.5 mph /  23.3 km/h 20.9 mph /  33.6 km/h 96 % 2.3 in /  58.42 mm
11:52 5.0 °F /  -15 °C 4.4 °F /  -15.3 °C 1011.7 in /  34256.2 hPa SW 9.7 mph /  15.6 km/h 19.3 mph /  31.1 km/h 96 % 2.3 in /  58.42 mm
11:57 5.4 °F /  -14.8 °C 5.0 °F /  -15 °C 1011.7 in /  34256.2 hPa SSW 14.5 mph /  23.3 km/h 19.3 mph /  31.1 km/h 97 % 1.8 in /  45.72 mm
12:02 5.8 °F /  -14.6 °C 5.4 °F /  -14.8 °C 1011.7 in /  34256.2 hPa SSW 12.9 mph /  20.8 km/h 20.9 mph /  33.6 km/h 97 % 1.8 in /  45.72 mm
12:12 6.2 °F /  -14.3 °C 5.5 °F /  -14.7 °C 1011.4 in /  34246 hPa WSW 24.1 mph /  38.8 km/h 27.4 mph /  44.1 km/h 95 % 1.5 in /  38.1 mm
12:17 6.3 °F /  -14.3 °C 5.6 °F /  -14.7 °C 1011.7 in /  34256.2 hPa West 24.1 mph /  38.8 km/h 35.4 mph /  57 km/h 95 % 1.0 in /  25.4 mm
12:22 6.4 °F /  -14.2 °C 5.5 °F /  -14.7 °C 1011.4 in /  34246 hPa SW 24.1 mph /  38.8 km/h 35.4 mph /  57 km/h 94 % 0.8 in /  20.32 mm
12:27 6.4 °F /  -14.2 °C 5.5 °F /  -14.7 °C 1011.4 in /  34246 hPa SW 19.3 mph /  31.1 km/h 35.4 mph /  57 km/h 94 % 0.8 in /  20.32 mm
12:32 6.5 °F /  -14.2 °C 5.6 °F /  -14.7 °C 1011.4 in /  34246 hPa SW 17.7 mph /  28.5 km/h 38.6 mph /  62.1 km/h 94 % 0.5 in /  12.7 mm
12:37 6.6 °F /  -14.1 °C 5.5 °F /  -14.7 °C 1011.1 in /  34235.8 hPa SW 17.7 mph /  28.5 km/h 38.6 mph /  62.1 km/h 93 % 0.5 in /  12.7 mm
12:42 6.7 °F /  -14.1 °C 5.6 °F /  -14.7 °C 1011.1 in /  34235.8 hPa WSW 20.9 mph /  33.6 km/h 46.7 mph /  75.2 km/h 93 % 0.3 in /  7.62 mm
12:47 6.7 °F /  -14.1 °C 5.6 °F /  -14.7 °C 1011.1 in /  34235.8 hPa WSW 25.7 mph /  41.4 km/h 46.7 mph /  75.2 km/h 93 % 0.3 in /  7.62 mm
12:52 6.7 °F /  -14.1 °C 5.5 °F /  -14.7 °C 1011.1 in /  34235.8 hPa WSW 11.3 mph /  18.2 km/h 46.7 mph /  75.2 km/h 92 % 0.0 in /  0 mm
13:02 6.8 °F /  -14 °C 5.6 °F /  -14.7 °C 1011.1 in /  34235.8 hPa SW 20.9 mph /  33.6 km/h 38.6 mph /  62.1 km/h 92 % 0.0 in /  0 mm
13:12 6.9 °F /  -13.9 °C 5.7 °F /  -14.6 °C 1011.1 in /  34235.8 hPa WSW 14.5 mph /  23.3 km/h 32.2 mph /  51.8 km/h 92 % 0.0 in /  0 mm
13:17 6.9 °F /  -13.9 °C 5.7 °F /  -14.6 °C 1011.1 in /  34235.8 hPa SW 24.1 mph /  38.8 km/h 30.6 mph /  49.2 km/h 92 % 0.0 in /  0 mm
13:22 6.9 °F /  -13.9 °C 5.7 °F /  -14.6 °C 1010.7 in /  34222.3 hPa SW 22.5 mph /  36.2 km/h 30.6 mph /  49.2 km/h 92 % 0.0 in /  0 mm
13:32 7.0 °F /  -13.9 °C 5.8 °F /  -14.6 °C 1010.4 in /  34212.1 hPa SW 19.3 mph /  31.1 km/h 30.6 mph /  49.2 km/h 92 % 0.0 in /  0 mm
13:37 7.0 °F /  -13.9 °C 5.8 °F /  -14.6 °C 1010.4 in /  34212.1 hPa WSW 20.9 mph /  33.6 km/h 27.4 mph /  44.1 km/h 92 % 0.0 in /  0 mm
13:42 7.1 °F /  -13.8 °C 5.9 °F /  -14.5 °C 1010.4 in /  34212.1 hPa SW 20.9 mph /  33.6 km/h 27.4 mph /  44.1 km/h 92 % 0.0 in /  0 mm
13:57 7.2 °F /  -13.8 °C 6.0 °F /  -14.4 °C 1010.0 in /  34198.6 hPa SW 17.7 mph /  28.5 km/h 32.2 mph /  51.8 km/h 92 % 0.0 in /  0 mm
14:02 7.2 °F /  -13.8 °C 6.0 °F /  -14.4 °C 1010.0 in /  34198.6 hPa SSW 11.3 mph /  18.2 km/h 32.2 mph /  51.8 km/h 92 % 0.0 in /  0 mm
14:12 7.2 °F /  -13.8 °C 6.0 °F /  -14.4 °C 1010.0 in /  34198.6 hPa SW 19.3 mph /  31.1 km/h 32.2 mph /  51.8 km/h 92 % 0.0 in /  0 mm
14:17 7.2 °F /  -13.8 °C 6.0 °F /  -14.4 °C 1009.7 in /  34188.4 hPa SW 12.9 mph /  20.8 km/h 30.6 mph /  49.2 km/h 92 % 0.0 in /  0 mm
14:32 7.3 °F /  -13.7 °C 6.1 °F /  -14.4 °C 1009.7 in /  34188.4 hPa SW 9.7 mph /  15.6 km/h 25.7 mph /  41.4 km/h 92 % 0.0 in /  0 mm
14:37 7.3 °F /  -13.7 °C 6.1 °F /  -14.4 °C 1009.7 in /  34188.4 hPa SW 16.1 mph /  25.9 km/h 27.4 mph /  44.1 km/h 92 % 0.0 in /  0 mm
14:42 7.3 °F /  -13.7 °C 6.1 °F /  -14.4 °C 1009.4 in /  34178.3 hPa SW 16.1 mph /  25.9 km/h 27.4 mph /  44.1 km/h 92 % 0.0 in /  0 mm
14:47 7.4 °F /  -13.7 °C 6.2 °F /  -14.3 °C 1009.4 in /  34178.3 hPa SW 14.5 mph /  23.3 km/h 25.7 mph /  41.4 km/h 92 % 0.0 in /  0 mm
14:57 7.4 °F /  -13.7 °C 6.3 °F /  -14.3 °C 1009.4 in /  34178.3 hPa SW 12.9 mph /  20.8 km/h 24.1 mph /  38.8 km/h 93 % 0.0 in /  0 mm
15:02 7.3 °F /  -13.7 °C 6.2 °F /  -14.3 °C 1009.4 in /  34178.3 hPa SW 11.3 mph /  18.2 km/h 24.1 mph /  38.8 km/h 93 % 0.0 in /  0 mm
15:07 7.3 °F /  -13.7 °C 6.2 °F /  -14.3 °C 1009.4 in /  34178.3 hPa SW 17.7 mph /  28.5 km/h 22.5 mph /  36.2 km/h 93 % 0.0 in /  0 mm
15:12 7.3 °F /  -13.7 °C 6.4 °F /  -14.2 °C 1009.4 in /  34178.3 hPa SW 12.9 mph /  20.8 km/h 20.9 mph /  33.6 km/h 94 % 0.0 in /  0 mm
15:17 7.3 °F /  -13.7 °C 6.2 °F /  -14.3 °C 1009.4 in /  34178.3 hPa SW 11.3 mph /  18.2 km/h 22.5 mph /  36.2 km/h 93 % 0.3 in /  7.62 mm
15:22 7.2 °F /  -13.8 °C 6.1 °F /  -14.4 °C 1009.0 in /  34164.7 hPa SW 17.7 mph /  28.5 km/h 22.5 mph /  36.2 km/h 93 % 0.3 in /  7.62 mm
15:32 7.2 °F /  -13.8 °C 6.1 °F /  -14.4 °C 1008.7 in /  34154.6 hPa SW 19.3 mph /  31.1 km/h 25.7 mph /  41.4 km/h 93 % 0.3 in /  7.62 mm
15:42 7.1 °F /  -13.8 °C 6.0 °F /  -14.4 °C 1008.7 in /  34154.6 hPa SSW 14.5 mph /  23.3 km/h 25.7 mph /  41.4 km/h 93 % 0.3 in /  7.62 mm
15:47 7.1 °F /  -13.8 °C 6.2 °F /  -14.3 °C 1008.7 in /  34154.6 hPa SSW 8.0 mph /  12.9 km/h 22.5 mph /  36.2 km/h 94 % 0.3 in /  7.62 mm
15:52 7.1 °F /  -13.8 °C 6.0 °F /  -14.4 °C 1008.4 in /  34144.4 hPa South 14.5 mph /  23.3 km/h 19.3 mph /  31.1 km/h 93 % 0.3 in /  7.62 mm
15:57 7.1 °F /  -13.8 °C 6.0 °F /  -14.4 °C 1008.4 in /  34144.4 hPa SSW 9.7 mph /  15.6 km/h 20.9 mph /  33.6 km/h 93 % 0.3 in /  7.62 mm
16:07 7.1 °F /  -13.8 °C 6.0 °F /  -14.4 °C 1008.4 in /  34144.4 hPa SSW 19.3 mph /  31.1 km/h 24.1 mph /  38.8 km/h 93 % 0.3 in /  7.62 mm
16:12 7.1 °F /  -13.8 °C 5.9 °F /  -14.5 °C 1008.4 in /  34144.4 hPa SW 17.7 mph /  28.5 km/h 30.6 mph /  49.2 km/h 92 % 0.3 in /  7.62 mm
16:17 7.1 °F /  -13.8 °C 5.7 °F /  -14.6 °C 1008.0 in /  34130.9 hPa SSW 16.1 mph /  25.9 km/h 37.0 mph /  59.5 km/h 91 % 0.0 in /  0 mm
16:32 6.8 °F /  -14 °C 5.6 °F /  -14.7 °C 1007.7 in /  34120.7 hPa SW 24.1 mph /  38.8 km/h 35.4 mph /  57 km/h 92 % 0.0 in /  0 mm
16:37 6.8 °F /  -14 °C 5.6 °F /  -14.7 °C 1007.7 in /  34120.7 hPa SSW 24.1 mph /  38.8 km/h 35.4 mph /  57 km/h 92 % 0.0 in /  0 mm
16:47 6.8 °F /  -14 °C 5.6 °F /  -14.7 °C 1007.3 in /  34107.2 hPa SW 25.7 mph /  41.4 km/h 37.0 mph /  59.5 km/h 92 % 0.0 in /  0 mm
16:52 6.8 °F /  -14 °C 5.7 °F /  -14.6 °C 1007.0 in /  34097 hPa SW 27.4 mph /  44.1 km/h 33.8 mph /  54.4 km/h 93 % 0.0 in /  0 mm
16:57 6.8 °F /  -14 °C 5.7 °F /  -14.6 °C 1007.0 in /  34097 hPa South 20.9 mph /  33.6 km/h 35.4 mph /  57 km/h 93 % 0.0 in /  0 mm
17:02 6.8 °F /  -14 °C 5.7 °F /  -14.6 °C 1007.0 in /  34097 hPa SW 19.3 mph /  31.1 km/h 35.4 mph /  57 km/h 93 % 0.0 in /  0 mm
17:22 6.8 °F /  -14 °C 5.9 °F /  -14.5 °C 1006.7 in /  34086.9 hPa SSW 16.1 mph /  25.9 km/h 33.8 mph /  54.4 km/h 94 % 0.0 in /  0 mm
17:32 6.8 °F /  -14 °C 5.9 °F /  -14.5 °C 1006.3 in /  34073.3 hPa SSW 17.7 mph /  28.5 km/h 33.8 mph /  54.4 km/h 94 % 0.3 in /  7.62 mm
17:37 6.8 °F /  -14 °C 5.9 °F /  -14.5 °C 1006.0 in /  34063.2 hPa SW 22.5 mph /  36.2 km/h 33.8 mph /  54.4 km/h 94 % 0.3 in /  7.62 mm
17:42 6.9 °F /  -13.9 °C 6.2 °F /  -14.3 °C 1005.6 in /  34049.6 hPa South 17.7 mph /  28.5 km/h 38.6 mph /  62.1 km/h 95 % 0.5 in /  12.7 mm
17:52 6.9 °F /  -13.9 °C 6.0 °F /  -14.4 °C 1005.6 in /  34049.6 hPa SSW 22.5 mph /  36.2 km/h 38.6 mph /  62.1 km/h 94 % 0.5 in /  12.7 mm
17:57 7.0 °F /  -13.9 °C 6.1 °F /  -14.4 °C 1005.6 in /  34049.6 hPa SW 16.1 mph /  25.9 km/h 35.4 mph /  57 km/h 94 % 0.5 in /  12.7 mm
18:12 7.1 °F /  -13.8 °C 6.4 °F /  -14.2 °C 1005.3 in /  34039.5 hPa SW 22.5 mph /  36.2 km/h 35.4 mph /  57 km/h 95 % 0.8 in /  20.32 mm
18:17 7.1 °F /  -13.8 °C 6.4 °F /  -14.2 °C 1005.0 in /  34029.3 hPa SW 27.4 mph /  44.1 km/h 35.4 mph /  57 km/h 95 % 0.8 in /  20.32 mm
18:32 7.1 °F /  -13.8 °C 6.4 °F /  -14.2 °C 1004.3 in /  34005.6 hPa SSE 17.7 mph /  28.5 km/h 33.8 mph /  54.4 km/h 95 % 0.8 in /  20.32 mm
18:37 7.1 °F /  -13.8 °C 6.4 °F /  -14.2 °C 1003.9 in /  33992.1 hPa SSW 16.1 mph /  25.9 km/h 32.2 mph /  51.8 km/h 95 % 1.0 in /  25.4 mm
18:42 6.9 °F /  -13.9 °C 6.2 °F /  -14.3 °C 1003.9 in /  33992.1 hPa SW 11.3 mph /  18.2 km/h 30.6 mph /  49.2 km/h 95 % 1.0 in /  25.4 mm
18:47 6.9 °F /  -13.9 °C 6.2 °F /  -14.3 °C 1003.6 in /  33981.9 hPa SSW 12.9 mph /  20.8 km/h 29.0 mph /  46.7 km/h 95 % 1.5 in /  38.1 mm
18:52 6.8 °F /  -14 °C 6.2 °F /  -14.3 °C 1003.6 in /  33981.9 hPa SSE 16.1 mph /  25.9 km/h 22.5 mph /  36.2 km/h 96 % 1.5 in /  38.1 mm
18:57 6.8 °F /  -14 °C 6.2 °F /  -14.3 °C 1003.6 in /  33981.9 hPa SSW 24.1 mph /  38.8 km/h 24.1 mph /  38.8 km/h 96 % 1.5 in /  38.1 mm
19:02 6.8 °F /  -14 °C 6.2 °F /  -14.3 °C 1003.3 in /  33971.7 hPa South 16.1 mph /  25.9 km/h 33.8 mph /  54.4 km/h 96 % 1.5 in /  38.1 mm
19:12 6.9 °F /  -13.9 °C 6.3 °F /  -14.3 °C 1003.3 in /  33971.7 hPa SW 19.3 mph /  31.1 km/h 33.8 mph /  54.4 km/h 96 % 1.5 in /  38.1 mm
19:17 6.9 °F /  -13.9 °C 6.3 °F /  -14.3 °C 1002.9 in /  33958.2 hPa SSW 19.3 mph /  31.1 km/h 29.0 mph /  46.7 km/h 96 % 1.5 in /  38.1 mm
19:22 6.9 °F /  -13.9 °C 6.3 °F /  -14.3 °C 1002.9 in /  33958.2 hPa SSW 14.5 mph /  23.3 km/h 29.0 mph /  46.7 km/h 96 % 1.3 in /  33.02 mm
19:27 7.0 °F /  -13.9 °C 6.4 °F /  -14.2 °C 1002.9 in /  33958.2 hPa SSW 20.9 mph /  33.6 km/h 29.0 mph /  46.7 km/h 96 % 1.3 in /  33.02 mm
19:37 7.3 °F /  -13.7 °C 6.9 °F /  -13.9 °C 1002.6 in /  33948 hPa SW 25.7 mph /  41.4 km/h 35.4 mph /  57 km/h 97 % 0.8 in /  20.32 mm
19:42 7.5 °F /  -13.6 °C 7.1 °F /  -13.8 °C 1002.3 in /  33937.9 hPa SW 20.9 mph /  33.6 km/h 37.0 mph /  59.5 km/h 97 % 0.8 in /  20.32 mm
19:47 7.7 °F /  -13.5 °C 7.3 °F /  -13.7 °C 1002.3 in /  33937.9 hPa WSW 32.2 mph /  51.8 km/h 40.2 mph /  64.7 km/h 97 % 0.5 in /  12.7 mm
19:52 7.8 °F /  -13.4 °C 7.4 °F /  -13.7 °C 1002.3 in /  33937.9 hPa SW 24.1 mph /  38.8 km/h 40.2 mph /  64.7 km/h 97 % 0.5 in /  12.7 mm
19:57 8.1 °F /  -13.3 °C 7.5 °F /  -13.6 °C 1002.3 in /  33937.9 hPa WSW 14.5 mph /  23.3 km/h 40.2 mph /  64.7 km/h 96 % 0.5 in /  12.7 mm
20:02 8.2 °F /  -13.2 °C 7.6 °F /  -13.6 °C 1001.9 in /  33924.3 hPa WSW 11.3 mph /  18.2 km/h 40.2 mph /  64.7 km/h 96 % 0.5 in /  12.7 mm
20:07 8.3 °F /  -13.2 °C 7.7 °F /  -13.5 °C 1001.9 in /  33924.3 hPa SW 25.7 mph /  41.4 km/h 40.2 mph /  64.7 km/h 96 % 0.5 in /  12.7 mm
20:12 8.4 °F /  -13.1 °C 7.8 °F /  -13.4 °C 1001.9 in /  33924.3 hPa WSW 20.9 mph /  33.6 km/h 40.2 mph /  64.7 km/h 96 % 0.3 in /  7.62 mm
20:17 8.5 °F /  -13.1 °C 7.9 °F /  -13.4 °C 1001.6 in /  33914.2 hPa SW 30.6 mph /  49.2 km/h 40.2 mph /  64.7 km/h 96 % 0.3 in /  7.62 mm
20:22 8.6 °F /  -13 °C 7.8 °F /  -13.4 °C 1001.9 in /  33924.3 hPa West 14.5 mph /  23.3 km/h 41.8 mph /  67.3 km/h 95 % 0.3 in /  7.62 mm
20:27 8.7 °F /  -12.9 °C 8.1 °F /  -13.3 °C 1001.6 in /  33914.2 hPa SW 27.4 mph /  44.1 km/h 41.8 mph /  67.3 km/h 96 % 0.3 in /  7.62 mm
20:32 8.8 °F /  -12.9 °C 8.2 °F /  -13.2 °C 1001.6 in /  33914.2 hPa WSW 22.5 mph /  36.2 km/h 48.3 mph /  77.7 km/h 96 % 0.5 in /  12.7 mm
20:37 8.9 °F /  -12.8 °C 8.3 °F /  -13.2 °C 1001.6 in /  33914.2 hPa WSW 33.8 mph /  54.4 km/h 48.3 mph /  77.7 km/h 96 % 0.5 in /  12.7 mm
20:42 9.1 °F /  -12.7 °C 8.5 °F /  -13.1 °C 1001.6 in /  33914.2 hPa WSW 24.1 mph /  38.8 km/h 48.3 mph /  77.7 km/h 96 % 0.3 in /  7.62 mm
20:47 9.2 °F /  -12.7 °C 8.6 °F /  -13 °C 1001.2 in /  33900.6 hPa SW 24.1 mph /  38.8 km/h 43.4 mph /  69.8 km/h 96 % 0.3 in /  7.62 mm
20:52 9.3 °F /  -12.6 °C 8.7 °F /  -12.9 °C 1001.6 in /  33914.2 hPa WSW 24.1 mph /  38.8 km/h 46.7 mph /  75.2 km/h 96 % 0.5 in /  12.7 mm
20:57 9.5 °F /  -12.5 °C 8.9 °F /  -12.8 °C 1001.6 in /  33914.2 hPa WSW 27.4 mph /  44.1 km/h 46.7 mph /  75.2 km/h 96 % 0.5 in /  12.7 mm
21:02 9.6 °F /  -12.4 °C 9.0 °F /  -12.8 °C 1001.6 in /  33914.2 hPa SW 22.5 mph /  36.2 km/h 46.7 mph /  75.2 km/h 96 % 0.5 in /  12.7 mm
21:07 9.8 °F /  -12.3 °C 9.2 °F /  -12.7 °C 1001.6 in /  33914.2 hPa WSW 19.3 mph /  31.1 km/h 51.5 mph /  82.9 km/h 96 % 0.5 in /  12.7 mm
21:12 9.8 °F /  -12.3 °C 9.2 °F /  -12.7 °C 1001.6 in /  33914.2 hPa WSW 20.9 mph /  33.6 km/h 51.5 mph /  82.9 km/h 96 % 0.8 in /  20.32 mm
21:17 10.0 °F /  -12.2 °C 9.4 °F /  -12.6 °C 1001.6 in /  33914.2 hPa SW 30.6 mph /  49.2 km/h 51.5 mph /  82.9 km/h 96 % 0.8 in /  20.32 mm
21:22 10.2 °F /  -12.1 °C 9.6 °F /  -12.4 °C 1001.9 in /  33924.3 hPa WSW 17.7 mph /  28.5 km/h 43.4 mph /  69.8 km/h 96 % 1.0 in /  25.4 mm
21:32 10.4 °F /  -12 °C 9.6 °F /  -12.4 °C 1001.6 in /  33914.2 hPa West 20.9 mph /  33.6 km/h 48.3 mph /  77.7 km/h 95 % 1.0 in /  25.4 mm
21:37 10.6 °F /  -11.9 °C 9.8 °F /  -12.3 °C 1001.9 in /  33924.3 hPa WNW 24.1 mph /  38.8 km/h 48.3 mph /  77.7 km/h 95 % 1.3 in /  33.02 mm
21:47 11.0 °F /  -11.7 °C 10.1 °F /  -12.2 °C 1001.9 in /  33924.3 hPa West 14.5 mph /  23.3 km/h 48.3 mph /  77.7 km/h 94 % 1.3 in /  33.02 mm
22:02 11.3 °F /  -11.5 °C 10.0 °F /  -12.2 °C 1002.3 in /  33937.9 hPa West 25.7 mph /  41.4 km/h 46.7 mph /  75.2 km/h 92 % 0.8 in /  20.32 mm
22:12 11.3 °F /  -11.5 °C 10.0 °F /  -12.2 °C 1002.6 in /  33948 hPa WSW 16.1 mph /  25.9 km/h 45.1 mph /  72.6 km/h 92 % 0.5 in /  12.7 mm
22:17 11.2 °F /  -11.6 °C 9.9 °F /  -12.3 °C 1002.6 in /  33948 hPa West 14.5 mph /  23.3 km/h 43.4 mph /  69.8 km/h 92 % 0.5 in /  12.7 mm
22:27 11.1 °F /  -11.6 °C 9.8 °F /  -12.3 °C 1002.9 in /  33958.2 hPa West 9.7 mph /  15.6 km/h 45.1 mph /  72.6 km/h 92 % 0.5 in /  12.7 mm
22:32 11.1 °F /  -11.6 °C 9.7 °F /  -12.4 °C 1002.9 in /  33958.2 hPa West 29.0 mph /  46.7 km/h 45.1 mph /  72.6 km/h 91 % 0.3 in /  7.62 mm
22:47 11.1 °F /  -11.6 °C 9.2 °F /  -12.7 °C 1003.3 in /  33971.7 hPa West 24.1 mph /  38.8 km/h 32.2 mph /  51.8 km/h 88 % 0.5 in /  12.7 mm
22:52 10.9 °F /  -11.7 °C 9.2 °F /  -12.7 °C 1003.6 in /  33981.9 hPa WNW 19.3 mph /  31.1 km/h 35.4 mph /  57 km/h 89 % 0.5 in /  12.7 mm
23:02 10.4 °F /  -12 °C 8.7 °F /  -12.9 °C 1003.6 in /  33981.9 hPa WNW 30.6 mph /  49.2 km/h 32.2 mph /  51.8 km/h 89 % 0.5 in /  12.7 mm
23:07 10.3 °F /  -12.1 °C 8.6 °F /  -13 °C 1003.9 in /  33992.1 hPa NW 19.3 mph /  31.1 km/h 33.8 mph /  54.4 km/h 89 % 0.5 in /  12.7 mm
23:17 10.4 °F /  -12 °C 8.2 °F /  -13.2 °C 1003.6 in /  33981.9 hPa West 25.7 mph /  41.4 km/h 45.1 mph /  72.6 km/h 86 % 0.5 in /  12.7 mm
23:22 10.3 °F /  -12.1 °C 8.1 °F /  -13.3 °C 1003.9 in /  33992.1 hPa West 32.2 mph /  51.8 km/h 45.1 mph /  72.6 km/h 86 % 0.5 in /  12.7 mm
23:27 10.3 °F /  -12.1 °C 8.1 °F /  -13.3 °C 1003.9 in /  33992.1 hPa West 33.8 mph /  54.4 km/h 43.4 mph /  69.8 km/h 86 % 0.5 in /  12.7 mm
23:32 10.3 °F /  -12.1 °C 8.2 °F /  -13.2 °C 1003.9 in /  33992.1 hPa West 19.3 mph /  31.1 km/h 41.8 mph /  67.3 km/h 87 % 0.5 in /  12.7 mm
23:37 10.3 °F /  -12.1 °C 8.4 °F /  -13.1 °C 1003.9 in /  33992.1 hPa WSW 27.4 mph /  44.1 km/h 37.0 mph /  59.5 km/h 88 % 0.3 in /  7.62 mm
23:42 10.2 °F /  -12.1 °C 8.5 °F /  -13.1 °C 1003.9 in /  33992.1 hPa WSW 14.5 mph /  23.3 km/h 35.4 mph /  57 km/h 89 % 0.3 in /  7.62 mm
23:47 10.2 °F /  -12.1 °C 8.5 °F /  -13.1 °C 1003.9 in /  33992.1 hPa WSW 20.9 mph /  33.6 km/h 33.8 mph /  54.4 km/h 89 % 0.3 in /  7.62 mm
Meteo18
Compliments of Weather Underground - 4 mb

Script developed by  Jim McMurry - jmcmurry@mwt.net Adapted for the template by  Wim van der Kuil - Leuven-Template.eu

You find our weather info also at:

European Weather Network

Weather Underground

Equipment we use:

Weather-station
Davis Vue

Weather-program
Meteobridge

Weather-server
Raspberry PI 2 B+

Provider
1 and 1

Davis Vue

Meteobridge

Raspberry PI 2 B+

1 and 1